Location: Goll?ig?dem
(16.6773°N, 80.7332°E)
Time: 06:19:12
(UTC+00:00)

Cosmos 1867 - Pass Details

Date: 21 April 2021
Orbit: 774 x 802 km, 65.0° (Epoch: 06 May)

Event Time Altitude Azimuth Distance (km) Brightness Sun altitude
Exits shadow 21:57:05 47° 79° (ENE) 1,028 4.4 -32.5°
Drops below altitude 10° 22:01:28 10° 35° (NE) 2,352 6.7 -31.5°
Sets 22:03:56 0° 31° (NNE) 3,286 7.6 -31.0°
